Chillicothe, MO

11:30 AM CDT on June 28, 2017 (GMT -0500)
Chillicothe

Weather History for KCDJ - April, 2013

Change the Weather History Date:

Wednesday, April 3, 2013

  Actual Average (KIRK) Record (KIRK)
Temperature  
Mean Temperature 40 °F -  
Max Temperature 53 °F 57 °F 85 °F (2011)
Min Temperature 28 °F 36 °F 11 °F (1936)
Degree Days  
Heating Degree Days 25    
Moisture  
Dew Point 21 °F    
Average Humidity 50    
Maximum Humidity 78    
Minimum Humidity 24    
Precipitation  
Precipitation 0.00 in - - ()
Sea Level Pressure  
Sea Level Pressure 30.37 in    
Wind  
Wind Speed 4 mph (ENE)    
Max Wind Speed 10 mph    
Max Gust Speed 17 mph    
Averages and records for this station are not official NWS values.
T = Trace of Precipitation, MM = Missing Value Source: NWS Daily Summary

Daily Weather History Graph

Daily Weather History Graph

Search for Another Location

Airport or City:

Trip Planner

Search our weather history database for the weather conditions in past years. The results will help you decide how hot, cold, wet, or windy it might be!

Date:

Astronomy

Apr. 03, 2013 Rise Set
Actual Time 6:54 AM CDT 7:40 PM CDT
Civil Twilight 6:27 AM CDT 8:08 PM CDT
Nautical Twilight 5:55 AM CDT 8:40 PM CDT
Astronomical Twilight 5:21 AM CDT 9:14 PM CDT
Moon 2:35 AM CDT (4/3) 12:54 PM CDT (4/3)
Length of Visible Light 13h 40m
Length of Day
12h 46m
Last Quarter, 44% of the Moon is Illuminated
Apr 3
Last Quarter
Apr 10
New
Apr 18
First Quarter
Apr 25
Full
May 2
Last Quarter

Hourly Weather History & Observations

Time (CDT) Temp. Windchill Dew Point Humidity Pressure Visibility Wind Dir Wind Speed Gust Speed Precip Events Conditions
12:52 AM 36.0 °F 30.3 °F 21.9 °F 57% 30.37 in - Variable 6.9 mph - N/A   Unknown
1:52 AM 34.0 °F 29.8 °F 21.9 °F 61% 30.37 in - East 4.6 mph - N/A   Unknown
2:52 AM 33.1 °F - 21.9 °F 64% 30.37 in - Calm Calm - N/A   Unknown
3:52 AM 30.9 °F - 21.9 °F 69% 30.38 in - Calm Calm - N/A   Unknown
4:52 AM 30.0 °F - 21.9 °F 72% 30.38 in - Calm Calm - N/A   Unknown
5:52 AM 28.0 °F - 21.9 °F 78% 30.41 in - Calm Calm - N/A   Unknown
6:52 AM 28.9 °F 23.9 °F 23.0 °F 78% 30.42 in - North 4.6 mph - N/A   Unknown
7:52 AM 30.9 °F 27.5 °F 21.9 °F 69% 30.45 in - NE 3.5 mph - N/A   Unknown
8:52 AM 36.0 °F 30.3 °F 21.9 °F 57% 30.45 in - Variable 6.9 mph - N/A   Unknown
9:52 AM 39.0 °F 32.3 °F 21.9 °F 50% 30.46 in - ESE 10.4 mph - N/A   Unknown
10:52 AM 43.0 °F 37.2 °F 21.9 °F 43% 30.43 in - ESE 10.4 mph - N/A   Unknown
11:52 AM 45.0 °F 40.6 °F 21.0 °F 39% 30.42 in - East 8.1 mph 17.3 mph N/A   Unknown
12:52 PM 46.0 °F - 19.9 °F 35% 30.40 in - Calm Calm - N/A   Unknown
1:52 PM 48.9 °F - 21.9 °F 35% 30.38 in - ENE 6.9 mph - N/A   Unknown
2:52 PM 52.0 °F - 21.0 °F 30% 30.35 in - NE 10.4 mph - N/A   Unknown
3:52 PM 51.1 °F - 21.0 °F 31% 30.34 in - ENE 8.1 mph - N/A   Unknown
4:52 PM 52.0 °F - 18.0 °F 26% 30.32 in - NE 9.2 mph - N/A   Unknown
5:52 PM 50.0 °F - 14.0 °F 24% 30.31 in - Calm Calm - N/A   Unknown
6:52 PM 48.0 °F - 18.0 °F 30% 30.31 in - East 6.9 mph - N/A   Unknown
7:52 PM 45.0 °F 42.6 °F 21.9 °F 40% 30.31 in - ESE 4.6 mph - N/A   Unknown
8:52 PM 43.0 °F - 21.0 °F 42% 30.31 in - Calm Calm - N/A   Unknown
9:52 PM 41.0 °F 39.0 °F 23.0 °F 49% 30.31 in - ESE 3.5 mph - N/A   Unknown
10:52 PM 35.1 °F - 24.1 °F 64% 30.31 in - Calm Calm - N/A   Unknown
11:52 PM 34.0 °F - 24.1 °F 67% 30.30 in - Calm Calm - N/A   Unknown